Simultaneous Nadir Overpasses (SNOs) Predictions

Prediction of SNOs between METOP-A and NOAA-19 Satellite Orbit:

Table of predicted SNOs for the next 14.0 days since TLE Epoch: 7/31/2015
Index Date (METOP-A) Time (METOP-A) Lat,Lon (METOP-A) SZA (METOP-A ) Date (NOAA-19) Time (NOAA-19) Lat,Lon (NOAA-19) SZA (NOAA-19 ) Distance(km) Time Diff (sec)
1 08/07/2015 23:36:06 75.26,-176.55 58.93 08/07/2015 23:34:53 75.27,-176.68 58.95 3.82 73
2 08/08/2015 00:26:49 -75.22, -9.35 121.11 08/08/2015 00:25:57 -75.22, -9.30 121.10 1.49 52
3 08/08/2015 01:17:29 75.19, 157.91 58.88 08/08/2015 01:16:54 75.20, 158.04 58.89 3.74 35
4 08/08/2015 02:08:11 -75.20, -34.75 121.11 08/08/2015 02:07:59 -75.20, -34.73 121.11 0.57 12
5 08/08/2015 02:58:51 75.17, 132.51 58.88 08/08/2015 02:58:56 75.17, 132.61 58.88 2.86 5
6
